Zurück zum Katalog

DELTA 1 DEB

AktivSSO
NORAD 12269·DEBRIS·🇺🇸 United States

Gestartet Mar 5, 1978 von Vandenberg Space Force Base

Loading…

Nächste Überflüge (nächste 24 Stunden)

TLE

AktuellSource: Space-Track

Epoche: Sep 14, 2026, 11:05 UTC

1 12269U 78026DN  26257.46210590  .00006507  00000-0  57391-3 0  9998
2 12269  98.1090 260.1661 0034856 184.2243 339.0922 14.96317238407431

Verfolge DELTA 1 DEB in Echtzeit mit AllMySat

Download on the App Store